Regional Weather Roundup
Issued by NWS State College, PA

Home | Current Version | Previous Version | Graphics & Text | Print | Product List | Glossary On
Versions: 1 2 3 4 5 6 7 8 9 10 11 12 13 14 15 16 17 18 19 20 21 22 23 24 25 26 27 28 29 30 31 32 33 34 35 36 37 38 39 40 41 42 43 44 45 46 47 48 49 50
000
ASUS41 KCTP 241403
RWRCTP

REGIONAL WEATHER ROUNDUP
NATIONAL WEATHER SERVICE STATE COLLEGE PA
900 AM EST WED DEC 24 2014

Note: "fair" indicates few or no clouds below 12,000 feet with no
significant weather and/or obstructions to visibility.

* = STATION THAT DOES NOT REPORT PRECIPITATION /E.G. RAIN...SNOW...ETC/
    THUNDER OR FOG.

PAZ002>004-007>009-013>016-020>023-029>032-241500-
WESTERN PENNSYLVANIA

CITY           SKY/WX    TMP DP  RH WIND       PRES   REMARKS
ERIE           CLOUDY    52  46  80 S20G25    29.63S
MEADVILLE      CLOUDY    49  45  86 VRB5      29.64F
FRANKLIN*      CLOUDY    46  43  87 SE9       29.68S
NEW CASTLE       N/A     48  48 100 CALM      29.66S
BEAVER COUNTY  NOT AVBL
BUTLER*        CLOUDY    48  46  93 E7        29.67F
PITTSBURGH INT CLOUDY    51  50  96 SE3       29.64F
PITTSBURGH     PTSUNNY   53  47  79 SE8       29.64F
INDIANA*       CLOUDY    50  46  87 VRB7G14   29.73F
LATROBE        CLOUDY    52  48  87 SE7G16    29.68F
WASHINGTON CO* NOT AVBL
$$

PAZ004>006-010>012-017>019-024>028-033>037-041-042-045-046-049>053-241500-
CENTRAL PENNSYLVANIA

CITY           SKY/WX    TMP DP  RH WIND       PRES   REMARKS
BRADFORD       CLOUDY    45  43  93 SE12      29.71F
DUBOIS         CLOUDY    45  44  97 SE14G22   29.70F FOG
CLEARFIELD     LGT RAIN  44  43  96 VRB5      29.76F
JOHNSTOWN      CLOUDY    43  41  93 SE10      29.71F
ALTOONA        FOG       41  41 100 CALM      29.78F VSB 3/4
STATE COLLEGE  CLOUDY    45  45 100 CALM      29.79F FOG
WILLIAMSPORT   LGT RAIN  47  44  90 E8        29.83F FOG
SELINSGROVE    LGT RAIN  44  43  96 CALM      29.85F VSB 3/4
FT INDIANTOWN  LGT RAIN  45  44  98 E6        29.86F FOG
CAPITAL CITY   RAIN      45  44  97 CALM      29.86F FOG
HARRISBURG     LGT RAIN  44  43  96 CALM      29.85F VSB 1/2
YORK           LGT RAIN  46  45  96 CALM      29.84F FOG
$$

PAZ038>040-043-044-047-048-054-055-060>062-067>071-241500-
EASTERN PENNSYLVANIA

CITY           SKY/WX    TMP DP  RH WIND       PRES   REMARKS
SCRANTON       LGT RAIN  48  44  86 N8        29.84F
MOUNT POCONO   LGT RAIN  41  40  96 E12       29.87F VSB 1/4
ALLENTOWN      LGT RAIN  47  44  90 E8        29.89F FOG
QUAKERTOWN*    CLOUDY    46  46 100 E8        29.90F
READING        RAIN      48  46  93 E5        29.87F FOG
LANCASTER      LGT RAIN  47  46  97 E7        29.86R VSB 3/4
COATESVILLE    LGT RAIN  48  48 100 E9        29.87F VSB 1/4
POTTSTOWN      LGT RAIN  47  46  97 E5        29.90S FOG
BLUE BELL      CLOUDY    48  46  93 E8        29.88F
DOYLESTOWN     LGT RAIN  45  45 100 VRB3      29.89F
WILLOW GROVE   NOT AVBL
NORTH PHILA    HVY RAIN  50  46  86 E8        29.91F FOG
PHILADELPHIA   LGT RAIN  48  46  93 NE5       29.90S FOG
$$


USA.gov is the U.S. government's official web portal to all federal, state and local government web resources and services.